Location: Claremont
(33.9858°S, 18.4575°E)
Time: 04:38:54
(UTC+00:00)

deb Transit VC - Pass Details

Date: 30 September 2021
Orbit: 840 x 910 km, 90.5° (Epoch: 27 October)

Event Time Altitude Azimuth Distance (km) Brightness Sun altitude
Rises 03:41:49 0° 165° (SSE) 3,427 ? -9.6°
Reaches altitude 10° 03:44:31 10° 154° (SSE) 2,487 ? -9.0°
Maximum altitude 03:49:23 30° 93° (E) 1,475 ? -8.1°
Drops below altitude 10° 03:54:14 10° 32° (NNE) 2,484 ? -7.1°
Sets 03:56:54 0° 21° (NNE) 3,421 ? -6.5°
